QPF
0.04 0.03 0.02 0.02 0.01 0.01 0.01 0.02 0.03 0.03 0.02 0.01 0.01 0.02 0.03 0.03 0.03 0.04 0.03 0.03 0.02 0.02 0.02 0.03 0.05 0.05 0.05 0.05 0.06 0.07 0.07 0.07 0.06 0.06 0.07 0.08 0.10 0.10
0.04 0.03 0.02 0.02 0.01 0.01 0.01 0.01 0.01 0.02 0.02 0.02 0.02 0.02 0.03 0.04 0.04 0.04 0.03 0.03 0.03 0.02 0.02 0.02 0.03 0.04 0.05 0.05 0.05 0.06 0.06 0.07 0.06 0.06 0.07 0.08 0.11 0.11
0.03 0.03 0.02 0.01 0.01 0.01 0.01 0.01 0.01 0.01 0.02 0.01 0.01 0.02 0.02 0.03 0.05 0.05 0.04 0.03 0.03 0.03 0.02 0.02 0.02 0.02 0.03 0.04 0.04 0.04 0.05 0.06 0.05 0.05 0.05 0.06 0.09 0.11
0.02 0.02 0.02 0.01 0.01 0.01 0.01 0.01 0.01 0.01 0.01 0.01 0.01 0.02 0.02 0.02 0.04 0.06 0.05 0.04 0.03 0.03 0.03 0.02 0.02 0.01 0.01 0.02 0.03 0.04 0.04 0.05 0.05 0.05 0.04 0.04 0.05 0.08
0.02 0.02 0.01 0.01 0.01 0.01 0.01 0.01 0.01 0.01 0.01 0.01 0.01 0.01 0.03 0.02 0.02 0.05 0.05 0.04 0.03 0.02 0.02 0.02 0.02 0.02 0.02 0.01 0.02 0.03 0.04 0.04 0.05 0.05 0.04 0.04 0.05 0.06
0.01 0.01 0.01 0.01 0.01 0.01 0.01 0.01 0.01 0.01 0.01 0.01 0.01 0.01 0.03 0.04 0.03 0.04 0.05 0.04 0.03 0.02 0.02 0.01 0.01 0.01 0.01 0.01 0.01 0.02 0.03 0.03 0.04 0.05 0.05 0.05 0.06 0.07
0.01 0.01 0.01 0.01 0.01 0.01 0.01 0.02 0.02 0.02 0.02 0.01 0.01 0.01 0.02 0.05 0.05 0.04 0.04 0.04 0.03 0.02 0.02 0.01 0.01 0.01 0.01 0.01 0.01 0.02 0.03 0.03 0.03 0.03 0.04 0.05 0.05 0.07
0.01 0.01 0.01 0.01 0.01 0.01 0.01 0.02 0.02 0.03 0.03 0.03 0.02 0.02 0.02 0.04 0.05 0.04 0.03 0.03 0.03 0.03 0.02 0.01 0.01 0.01 0.01 0.01 0.02 0.02 0.02 0.02 0.02 0.02 0.03 0.04 0.04 0.05
0.01 0.01 0.01 0.01 0.01 0.01 0.01 0.01 0.02 0.02 0.03 0.03 0.04 0.03 0.03 0.03 0.04 0.04 0.03 0.02 0.02 0.02 0.02 0.01 0.01 0.01 0.01 0.01 0.02 0.03 0.03 0.02 0.02 0.02 0.02 0.02 0.03 0.04
0.02 0.02 0.02 0.02 0.01 0.01 0.02 0.02 0.02 0.02 0.02 0.02 0.03 0.03 0.03 0.03 0.03 0.03 0.03 0.02 0.02 0.02 0.02 0.02 0.02 0.01 0.02 0.02 0.02 0.03 0.03 0.02 0.02 0.02 0.01 0.02 0.02 0.03
0.02 0.03 0.02 0.02 0.02 0.02 0.03 0.03 0.02 0.02 0.02 0.02 0.03 0.04 0.05 0.06 0.05 0.04 0.04 0.03 0.03 0.03 0.02 0.03 0.02 0.02 0.03 0.03 0.02 0.03 0.04 0.03 0.02 0.02 0.02 0.02 0.02 0.03
0.02 0.03 0.02 0.02 0.02 0.03 0.03 0.03 0.03 0.03 0.03 0.02 0.03 0.04 0.05 0.05 0.04 0.03 0.03 0.04 0.04 0.03 0.03 0.04 0.03 0.03 0.04 0.04 0.03 0.04 0.05 0.04 0.03 0.02 0.02 0.02 0.02 0.02
0.02 0.02 0.02 0.02 0.01 0.02 0.02 0.03 0.03 0.03 0.03 0.04 0.04 0.04 0.05 0.04 0.02 0.02 0.01 0.02 0.03 0.03 0.03 0.05 0.05 0.04 0.04 0.04 0.05 0.05 0.05 0.05 0.04 0.03 0.02 0.02 0.02 0.02
0.02 0.02 0.02 0.02 0.02 0.02 0.02 0.02 0.02 0.03 0.04 0.04 0.05 0.06 0.06 0.04 0.02 0.02 0.02 0.03 0.02 0.03 0.03 0.05 0.05 0.04 0.04 0.04 0.05 0.06 0.06 0.05 0.04 0.03 0.03 0.02 0.02 0.02
0.01 0.01 0.02 0.02 0.03 0.03 0.03 0.03 0.02 0.03 0.04 0.04 0.04 0.05 0.05 0.05 0.04 0.03 0.03 0.04 0.04 0.04 0.04 0.04 0.05 0.04 0.05 0.05 0.05 0.06 0.07 0.07 0.05 0.03 0.03 0.02 0.01 0.02
0.01 0.02 0.02 0.02 0.03 0.03 0.04 0.05 0.05 0.05 0.05 0.05 0.05 0.06 0.06 0.06 0.05 0.04 0.04 0.04 0.05 0.05 0.05 0.05 0.05 0.05 0.05 0.05 0.04 0.05 0.05 0.06 0.05 0.03 0.02 0.02 0.01 0.01
0.02 0.03 0.03 0.04 0.04 0.03 0.04 0.04 0.05 0.07 0.08 0.07 0.06 0.07 0.06 0.06 0.06 0.05 0.05 0.05 0.05 0.05 0.05 0.06 0.07 0.06 0.05 0.05 0.04 0.04 0.04 0.04 0.04 0.03 0.02 0.02 0.02 0.02
0.02 0.03 0.04 0.05 0.05 0.04 0.04 0.04 0.05 0.07 0.09 0.10 0.09 0.08 0.07 0.07 0.07 0.06 0.05 0.06 0.06 0.05 0.05 0.05 0.07 0.08 0.07 0.06 0.05 0.04 0.04 0.04 0.03 0.03 0.02 0.02 0.02 0.02
0.03 0.03 0.03 0.04 0.05 0.04 0.04 0.04 0.05 0.05 0.06 0.07 0.09 0.09 0.08 0.07 0.07 0.07 0.06 0.06 0.06 0.05 0.04 0.04 0.05 0.07 0.08 0.07 0.06 0.05 0.04 0.04 0.03 0.02 0.02 0.02 0.02 0.02
0.03 0.03 0.03 0.03 0.04 0.04 0.04 0.04 0.04 0.04 0.04 0.05 0.07 0.07 0.08 0.08 0.07 0.07 0.06 0.06 0.05 0.05 0.04 0.04 0.05 0.05 0.06 0.06 0.06 0.06 0.04 0.03 0.03 0.02 0.02 0.02 0.02 0.03
0.03 0.03 0.03 0.03 0.04 0.04 0.04 0.04 0.04 0.04 0.04 0.05 0.06 0.06 0.07 0.07 0.07 0.07 0.06 0.06 0.05 0.04 0.04 0.04 0.05 0.05 0.04 0.05 0.06 0.06 0.05 0.03 0.02 0.02 0.02 0.03 0.03 0.03
0.03 0.03 0.03 0.03 0.03 0.04 0.04 0.04 0.04 0.04 0.04 0.04 0.05 0.05 0.06 0.06 0.06 0.06 0.07 0.06 0.05 0.04 0.04 0.04 0.05 0.05 0.04 0.05 0.04 0.04 0.04 0.04 0.03 0.03 0.02 0.03 0.04 0.03
0.04 0.04 0.03 0.03 0.03 0.03 0.04 0.04 0.04 0.04 0.04 0.04 0.04 0.05 0.05 0.06 0.06 0.06 0.06 0.05 0.05 0.05 0.04 0.05 0.06 0.05 0.04 0.04 0.04 0.03 0.03 0.03 0.03 0.03 0.03 0.02 0.02 0.02
MSLP
1024.53 1024.80 1025.04 1025.25 1025.44 1025.64 1025.86 1026.14 1026.49 1026.89 1027.35 1027.83 1028.28 1028.68 1028.98 1029.18 1029.27 1029.24 1029.13 1028.96 1028.76 1028.54 1028.32 1028.10 1027.87 1027.61 1027.31 1026.97 1026.59 1026.17 1025.75 1025.35 1025.00 1024.74 1024.59 1024.57 1024.67 1024.88
1025.08 1025.38 1025.64 1025.85 1026.02 1026.19 1026.36 1026.57 1026.84 1027.17 1027.55 1027.96 1028.37 1028.74 1029.05 1029.26 1029.36 1029.37 1029.30 1029.16 1028.98 1028.78 1028.57 1028.36 1028.13 1027.88 1027.61 1027.29 1026.94 1026.57 1026.19 1025.84 1025.55 1025.32 1025.20 1025.19 1025.29 1025.48
1025.64 1025.96 1026.25 1026.47 1026.65 1026.80 1026.95 1027.11 1027.32 1027.58 1027.89 1028.23 1028.59 1028.92 1029.19 1029.39 1029.50 1029.53 1029.47 1029.35 1029.18 1028.99 1028.78 1028.57 1028.34 1028.11 1027.84 1027.56 1027.25 1026.92 1026.60 1026.30 1026.05 1025.87 1025.76 1025.76 1025.84 1026.00
1026.14 1026.49 1026.80 1027.05 1027.25 1027.41 1027.55 1027.70 1027.87 1028.08 1028.33 1028.61 1028.91 1029.19 1029.43 1029.60 1029.70 1029.71 1029.65 1029.52 1029.35 1029.15 1028.93 1028.71 1028.48 1028.24 1027.99 1027.72 1027.45 1027.17 1026.90 1026.65 1026.44 1026.29 1026.20 1026.19 1026.25 1026.38
1026.55 1026.92 1027.25 1027.54 1027.77 1027.95 1028.11 1028.26 1028.42 1028.60 1028.81 1029.05 1029.29 1029.52 1029.72 1029.85 1029.92 1029.91 1029.83 1029.69 1029.50 1029.27 1029.03 1028.78 1028.52 1028.27 1028.02 1027.76 1027.51 1027.27 1027.03 1026.83 1026.65 1026.53 1026.45 1026.44 1026.48 1026.57
1026.88 1027.25 1027.60 1027.91 1028.18 1028.39 1028.58 1028.75 1028.91 1029.09 1029.28 1029.48 1029.68 1029.86 1030.01 1030.11 1030.14 1030.10 1029.99 1029.82 1029.59 1029.33 1029.06 1028.77 1028.48 1028.20 1027.93 1027.67 1027.42 1027.19 1026.99 1026.81 1026.67 1026.56 1026.50 1026.48 1026.51 1026.57
1027.14 1027.50 1027.86 1028.19 1028.48 1028.73 1028.95 1029.14 1029.32 1029.49 1029.67 1029.84 1030.00 1030.14 1030.25 1030.30 1030.30 1030.22 1030.08 1029.88 1029.63 1029.33 1029.02 1028.69 1028.37 1028.05 1027.75 1027.47 1027.21 1026.99 1026.79 1026.62 1026.49 1026.40 1026.35 1026.33 1026.34 1026.39
1027.34 1027.70 1028.05 1028.39 1028.70 1028.97 1029.21 1029.42 1029.61 1029.78 1029.93 1030.08 1030.21 1030.31 1030.37 1030.39 1030.35 1030.25 1030.09 1029.86 1029.59 1029.27 1028.93 1028.57 1028.21 1027.85 1027.52 1027.21 1026.93 1026.68 1026.48 1026.31 1026.17 1026.08 1026.03 1026.00 1026.01 1026.05
1027.50 1027.84 1028.19 1028.53 1028.84 1029.12 1029.37 1029.58 1029.77 1029.92 1030.06 1030.17 1030.26 1030.33 1030.35 1030.34 1030.27 1030.15 1029.98 1029.75 1029.47 1029.14 1028.79 1028.41 1028.03 1027.65 1027.28 1026.94 1026.63 1026.35 1026.12 1025.93 1025.78 1025.67 1025.59 1025.56 1025.56 1025.59
1027.59 1027.93 1028.27 1028.60 1028.91 1029.18 1029.42 1029.62 1029.79 1029.92 1030.03 1030.11 1030.16 1030.18 1030.17 1030.13 1030.05 1029.92 1029.75 1029.53 1029.26 1028.95 1028.61 1028.24 1027.85 1027.46 1027.07 1026.70 1026.35 1026.04 1025.77 1025.54 1025.35 1025.20 1025.10 1025.04 1025.01 1025.03
1027.59 1027.92 1028.25 1028.56 1028.86 1029.12 1029.34 1029.52 1029.66 1029.76 1029.83 1029.87 1029.89 1029.88 1029.84 1029.78 1029.68 1029.56 1029.40 1029.21 1028.97 1028.70 1028.39 1028.04 1027.67 1027.29 1026.89 1026.50 1026.12 1025.77 1025.45 1025.16 1024.92 1024.73 1024.58 1024.47 1024.41 1024.39
1027.44 1027.76 1028.07 1028.37 1028.65 1028.89 1029.08 1029.24 1029.36 1029.44 1029.48 1029.49 1029.48 1029.44 1029.38 1029.30 1029.21 1029.09 1028.96 1028.79 1028.60 1028.37 1028.11 1027.81 1027.47 1027.10 1026.71 1026.31 1025.91 1025.52 1025.15 1024.81 1024.51 1024.25 1024.03 1023.87 1023.76 1023.70
1027.11 1027.40 1027.70 1027.97 1028.23 1028.44 1028.63 1028.77 1028.88 1028.94 1028.97 1028.97 1028.94 1028.89 1028.82 1028.74 1028.65 1028.54 1028.43 1028.30 1028.14 1027.96 1027.75 1027.49 1027.20 1026.86 1026.49 1026.09 1025.67 1025.25 1024.83 1024.44 1024.07 1023.74 1023.46 1023.24 1023.07 1022.95
1026.56 1026.83 1027.09 1027.33 1027.56 1027.77 1027.95 1028.09 1028.21 1028.28 1028.32 1028.33 1028.31 1028.26 1028.19 1028.11 1028.02 1027.93 1027.83 1027.72 1027.60 1027.46 1027.28 1027.07 1026.81 1026.51 1026.16 1025.77 1025.34 1024.90 1024.45 1024.01 1023.59 1023.20 1022.86 1022.57 1022.35 1022.19
1025.82 1026.04 1026.25 1026.46 1026.67 1026.86 1027.05 1027.21 1027.35 1027.47 1027.55 1027.59 1027.60 1027.57 1027.52 1027.45 1027.36 1027.27 1027.17 1027.07 1026.96 1026.84 1026.69 1026.51 1026.28 1026.00 1025.68 1025.30 1024.88 1024.43 1023.96 1023.49 1023.03 1022.60 1022.21 1021.88 1021.61 1021.41
1024.95 1025.09 1025.24 1025.40 1025.58 1025.77 1025.97 1026.17 1026.36 1026.53 1026.67 1026.77 1026.82 1026.83 1026.81 1026.75 1026.66 1026.56 1026.46 1026.35 1026.23 1026.11 1025.97 1025.80 1025.59 1025.34 1025.03 1024.67 1024.27 1023.82 1023.35 1022.87 1022.40 1021.95 1021.55 1021.19 1020.90 1020.68
1024.01 1024.06 1024.13 1024.23 1024.38 1024.57 1024.79 1025.03 1025.27 1025.51 1025.72 1025.88 1026.00 1026.05 1026.05 1026.01 1025.92 1025.81 1025.68 1025.55 1025.41 1025.27 1025.12 1024.95 1024.75 1024.51 1024.23 1023.90 1023.52 1023.11 1022.66 1022.20 1021.74 1021.30 1020.90 1020.55 1020.26 1020.05
1023.10 1023.04 1023.03 1023.07 1023.17 1023.35 1023.58 1023.85 1024.15 1024.45 1024.72 1024.95 1025.12 1025.22 1025.25 1025.21 1025.12 1024.99 1024.84 1024.67 1024.50 1024.34 1024.17 1024.00 1023.81 1023.59 1023.34 1023.04 1022.71 1022.34 1021.94 1021.52 1021.11 1020.71 1020.34 1020.02 1019.76 1019.58
1022.29 1022.12 1022.02 1021.99 1022.05 1022.20 1022.43 1022.72 1023.05 1023.39 1023.72 1024.00 1024.21 1024.34 1024.38 1024.35 1024.25 1024.10 1023.92 1023.72 1023.53 1023.34 1023.17 1022.99 1022.82 1022.63 1022.42 1022.18 1021.91 1021.60 1021.27 1020.93 1020.58 1020.25 1019.94 1019.68 1019.47 1019.32
1021.61 1021.35 1021.16 1021.06 1021.07 1021.18 1021.39 1021.67 1022.01 1022.37 1022.72 1023.02 1023.25 1023.39 1023.44 1023.40 1023.29 1023.13 1022.93 1022.72 1022.51 1022.32 1022.15 1022.00 1021.85 1021.71 1021.56 1021.40 1021.20 1020.99 1020.75 1020.49 1020.23 1019.98 1019.75 1019.56 1019.41 1019.31
1021.06 1020.73 1020.47 1020.31 1020.26 1020.32 1020.49 1020.75 1021.07 1021.41 1021.74 1022.03 1022.25 1022.39 1022.43 1022.39 1022.27 1022.10 1021.89 1021.69 1021.49 1021.31 1021.17 1021.06 1020.98 1020.90 1020.83 1020.76 1020.67 1020.55 1020.42 1020.27 1020.11 1019.95 1019.80 1019.68 1019.59 1019.55
1020.61 1020.23 1019.92 1019.71 1019.61 1019.62 1019.74 1019.95 1020.22 1020.51 1020.81 1021.06 1021.25 1021.36 1021.39 1021.33 1021.21 1021.05 1020.86 1020.67 1020.51 1020.38 1020.29 1020.25 1020.24 1020.26 1020.29 1020.32 1020.33 1020.33 1020.31 1020.27 1020.22 1020.15 1020.09 1020.04 1020.01 1020.00
1020.21 1019.81 1019.48 1019.23 1019.09 1019.05 1019.11 1019.26 1019.47 1019.70 1019.93 1020.14 1020.28 1020.36 1020.37 1020.31 1020.19 1020.05 1019.89 1019.75 1019.64 1019.58 1019.57 1019.61 1019.70 1019.82 1019.95 1020.09 1020.23 1020.34 1020.43 1020.50 1020.54 1020.56 1020.57 1020.58 1020.59 1020.61
Thickness
5461 5463 5466 5468 5469 5471 5473 5476 5480 5487 5493 5496 5497 5498 5499 5502 5505 5508 5512 5516 5519 5521 5524 5527 5529 5532 5535 5539 5542 5545 5548 5550 5553 5555 5557 5558 5560 5562
5448 5450 5453 5456 5458 5460 5461 5464 5467 5472 5479 5485 5485 5487 5488 5491 5494 5497 5501 5504 5507 5510 5513 5516 5518 5521 5524 5527 5531 5534 5537 5540 5542 5545 5547 5549 5551 5553
5436 5438 5440 5443 5446 5448 5450 5452 5455 5458 5464 5471 5472 5475 5477 5480 5484 5486 5490 5492 5496 5499 5501 5504 5507 5510 5513 5516 5519 5522 5526 5529 5532 5535 5537 5539 5541 5543
5424 5426 5428 5430 5434 5436 5438 5441 5443 5447 5451 5456 5461 5463 5467 5470 5473 5476 5479 5482 5485 5488 5490 5492 5495 5498 5501 5504 5507 5511 5514 5517 5521 5524 5527 5529 5531 5533
5412 5414 5416 5418 5422 5424 5427 5429 5431 5434 5438 5443 5449 5452 5455 5458 5462 5465 5468 5471 5474 5476 5478 5480 5483 5486 5489 5492 5496 5500 5503 5506 5509 5512 5515 5517 5519 5521
5399 5401 5404 5407 5410 5412 5414 5417 5419 5422 5426 5430 5436 5440 5444 5447 5449 5453 5457 5460 5462 5464 5466 5468 5471 5474 5477 5481 5484 5488 5490 5493 5496 5500 5503 5506 5508 5509
5387 5389 5392 5394 5397 5399 5402 5405 5407 5411 5414 5418 5424 5429 5433 5436 5439 5443 5445 5448 5451 5452 5455 5458 5460 5463 5465 5469 5472 5476 5479 5482 5485 5489 5492 5494 5496 5498
5375 5378 5380 5382 5384 5386 5389 5392 5395 5398 5403 5407 5413 5418 5423 5426 5428 5430 5433 5436 5440 5443 5442 5446 5447 5451 5454 5458 5461 5465 5468 5471 5475 5478 5481 5483 5484 5487
5364 5367 5369 5372 5374 5376 5379 5381 5384 5386 5389 5394 5402 5408 5412 5416 5416 5419 5421 5424 5429 5431 5430 5436 5437 5440 5444 5447 5450 5453 5457 5460 5463 5466 5468 5471 5473 5475
5351 5355 5358 5361 5364 5366 5369 5372 5376 5379 5382 5385 5391 5397 5400 5402 5404 5406 5408 5410 5414 5416 5417 5423 5427 5430 5432 5436 5439 5443 5446 5449 5452 5455 5457 5460 5462 5463
5340 5343 5346 5350 5354 5355 5358 5364 5368 5371 5373 5375 5381 5385 5389 5391 5391 5393 5395 5398 5403 5406 5406 5409 5415 5417 5421 5426 5429 5431 5435 5438 5441 5444 5446 5448 5449 5451
5330 5333 5336 5340 5343 5344 5348 5353 5359 5364 5365 5369 5372 5376 5379 5382 5383 5384 5386 5387 5391 5395 5397 5397 5400 5401 5408 5416 5418 5420 5423 5426 5429 5432 5434 5436 5437 5437
5319 5324 5328 5330 5333 5336 5339 5344 5350 5352 5355 5359 5363 5368 5371 5374 5375 5376 5377 5378 5382 5386 5387 5385 5388 5389 5393 5401 5406 5408 5411 5414 5417 5419 5421 5423 5424 5425
5308 5314 5318 5321 5324 5326 5330 5334 5337 5339 5344 5349 5354 5360 5363 5365 5366 5367 5368 5369 5372 5376 5376 5375 5377 5380 5382 5387 5394 5399 5400 5402 5404 5407 5409 5411 5412 5413
5297 5303 5306 5309 5313 5316 5320 5323 5326 5329 5334 5339 5345 5351 5353 5355 5356 5356 5357 5358 5361 5364 5366 5366 5368 5370 5372 5377 5383 5387 5388 5391 5392 5394 5396 5398 5400 5401
5287 5292 5295 5299 5302 5306 5311 5313 5316 5320 5324 5329 5335 5339 5341 5343 5346 5347 5348 5350 5351 5355 5356 5357 5359 5360 5363 5367 5372 5375 5376 5378 5380 5380 5381 5384 5386 5388
5277 5281 5286 5290 5294 5299 5302 5304 5308 5311 5314 5318 5323 5327 5331 5334 5337 5338 5339 5341 5343 5347 5348 5348 5349 5351 5353 5357 5361 5365 5366 5367 5367 5366 5367 5371 5374 5376
5266 5271 5277 5282 5286 5290 5293 5296 5298 5302 5305 5308 5312 5316 5321 5324 5327 5328 5330 5333 5336 5339 5339 5339 5339 5341 5343 5347 5351 5354 5355 5355 5355 5354 5354 5358 5364 5366
5258 5264 5268 5273 5277 5280 5284 5287 5290 5292 5295 5298 5302 5306 5309 5313 5316 5319 5322 5324 5326 5328 5329 5329 5330 5331 5335 5341 5345 5341 5342 5344 5343 5344 5345 5347 5352 5355
5251 5255 5259 5263 5267 5270 5274 5277 5279 5282 5285 5288 5292 5296 5299 5302 5306 5310 5313 5315 5316 5317 5318 5319 5321 5323 5326 5330 5331 5332 5330 5331 5332 5334 5335 5337 5339 5342
5242 5246 5249 5253 5257 5260 5264 5266 5269 5271 5275 5278 5282 5286 5289 5292 5296 5300 5303 5305 5305 5307 5309 5311 5312 5312 5312 5314 5317 5321 5322 5321 5322 5323 5324 5325 5329 5332
5232 5235 5239 5243 5247 5250 5253 5255 5258 5261 5265 5268 5272 5276 5280 5283 5286 5289 5292 5294 5296 5297 5299 5300 5300 5300 5302 5304 5308 5311 5312 5312 5312 5313 5315 5317 5317 5322
5223 5226 5229 5232 5236 5240 5243 5246 5249 5252 5256 5260 5263 5267 5270 5274 5277 5280 5281 5283 5286 5288 5289 5290 5291 5291 5292 5295 5297 5300 5301 5302 5303 5305 5307 5308 5309 5311